Location: Fluertsh�userhof
(48.7537°N, 10.3850°E)
Time: 09:31:53
(UTC+00:00)

Lacrosse 5 rocket - Pass Details

Date: 18 September 2020
Orbit: 460 x 636 km, 57.0° (Epoch: 27 October)

Event Time Altitude Azimuth Distance (km) Brightness Sun altitude
Rises 21:26:51 0° 301° (WNW) 2,848 5.8 -34.9°
Reaches altitude 10° 21:29:14 10° 310° (NW) 1,968 4.8 -35.1°
Enters shadow 21:30:44 19° 321° (NW) 1,462 4.1 -35.2°
